Вернуться в каталог

FENGYUN 1C DEB

АктивенSSO
NORAD 30117·DEBRIS·🇨🇳 China

Запущен May 10, 1999 с Taiyuan Satellite Launch Center

Loading…

Ближайшие Пролёты (ближайшие 24 часа)

TLE

СвежийSource: Space-Track

Эпоха: Sep 14, 2026, 09:54 UTC

1 30117U 99025RW  26257.41280578  .00000208  00000-0  13149-3 0  9995
2 30117  98.8278 244.2628 0164270 153.4229   4.7091 14.07351020  8664

Отслеживайте FENGYUN 1C DEB в реальном времени с AllMySat

Download on the App Store